Regional Weather Roundup
Issued by NWS

Home | Current Version | Previous Version | Graphics & Text | Print | Product List | Glossary On
Versions: 1 2 3 4 5 6 7 8 9 10 11 12 13 14 15 16 17 18 19 20 21 22 23 24 25 26 27 28 29 30 31 32 33 34 35 36 37 38 39 40 41 42 43 44 45 46 47 48 49 50
000
ASUS43 KMPX 301010
RWRMN
WEATHER ROUNDUP FOR MINNESOTA
NATIONAL WEATHER SERVICE TWIN CITIES/CHANHASSEN MN
500 AM CDT THU JUL 30 2015


NOTE: "FAIR" INDICATES FEW OR NO CLOUDS BELOW 12,000 FEET WITH NO
SIGNIFICANT WEATHER AND/OR OBSTRUCTIONS TO VISIBILITY. N/A MEANS
CURRENT SKY AND/OR WEATHER CONDITIONS ARE NOT AVAILABLE.

MNZ060>063-068>070-301100-
   Twin Cities Metro

CITY           SKY/WX    TMP DP  RH WIND       PRES   REMARKS
TWIN CITIES    CLEAR     65  55  70 SW9       30.02R
ST PAUL        CLEAR     64  56  75 CALM      30.02R
CRYSTAL        CLEAR     67  55  65 W8        30.00R
BLAINE         CLEAR     70  55  60 W7        30.01R
LAKEVILLE      CLEAR     61  55  82 W5        30.04R
EDEN PRAIRIE   CLEAR     60  55  83 SW8       30.02S
SOUTH ST PAUL  CLEAR     66  54  66 W10       30.01S
LAKE ELMO      FAIR      63  55  77 W6        30.02R
$$
MNZ001>005-007-008-013>017-022>024-027-028-301100-
   Northwest Minnesota

CITY           SKY/WX    TMP DP  RH WIND       PRES   REMARKS
BEMIDJI        CLEAR     60  56  86 W7        29.96R
HALLOCK        CLEAR     55  54  94 W3        29.92S
ROSEAU         MOCLDY    61  55  82 SW5       29.91S
WARROAD        CLOUDY    57  54  88 SW6       29.91S
THIEF RVR FALL CLEAR     59  55  88 W9        29.95R
CROOKSTON      CLEAR     59  57  94 W7        29.96S
FOSSTON        CLEAR     54  52  94 CALM      29.97S
DETROIT LAKES  CLEAR     63  54  72 W10       30.02R
MOORHEAD       CLEAR     61  55  82 W7        30.01R
PARK RAPIDS    CLEAR     57  54  89 W5        29.98S
MAHNOMEN       FAIR      59  55  88 W9        29.98R
$$
MNZ006-009>011-018-025>026-301100-
   North Central Minnesota

CITY           SKY/WX    TMP DP  RH WIND       PRES   REMARKS
BAUDETTE       CLEAR     56  53  90 W6        29.90R
FLAG ISLAND    CLEAR     61  57  88 W9        29.88R
INTL FALLS     CLEAR     57  54  89 W7        29.88R
WASKISH        CLEAR     64  57  77 W8        29.92R
BIG FORK       CLEAR     61  55  82 W5        29.92S
LONGVILLE      CLEAR     59  55  88 CALM      29.96R
GRAND RAPIDS   CLEAR     64  55  72 W8        29.94R
CRANE LAKE     CLEAR     59  54  82 W2        29.87R
ORR            CLEAR     57  52  82 CALM      29.87R
COOK           CLEAR     57  54  88 W6        29.90R
WALKER         FAIR      60  55  84 W6        29.96R
$$
MNZ012-019>021-037-301100-
   Northeast Minnesota

CITY           SKY/WX    TMP DP  RH WIND       PRES   REMARKS
DULUTH         CLEAR     60  55  83 W12       29.92R
ELY            CLEAR     61  54  77 W10       29.86R
HIBBING        CLEAR     60  54  80 W6        29.91R
EVELETH        CLEAR     59  54  82 W3        29.91R
DULUTH HARBOR  CLEAR     66  59  77 SW14      29.91R
TWO HARBORS    CLEAR     66  57  72 W7        29.87R
SILVER BAY     CLEAR     63  54  72 CALM      29.84R
GRAND MARAIS     N/A     50  46  86 W7        29.76R
G MARAIS ARPRT   N/A     61  48  63 W12G23    29.78R
$$
MNZ029>031-032-039>041-046>048-054>057-064-301100-
   West Central Minnesota

CITY           SKY/WX    TMP DP  RH WIND       PRES   REMARKS
FERGUS FALLS   CLEAR     57  54  88 CALM      30.03R
WHEATON        CLEAR     59  54  82 SW6       30.07R
MORRIS         CLEAR     61  54  77 W8        30.04R
ALEXANDRIA     CLEAR     63  53  70 W10       30.05R
ELBOW LAKE     FAIR      58  53  83 W7        30.04R
WADENA         CLEAR     59  54  82 SW6       30.00S
GLENWOOD       CLEAR     63  54  72 W10       30.05R
APPLETON       CLEAR     59  54  82 W6        30.05S
BENSON         CLEAR     57  52  82 W7        30.05R
ORTONVILLE     CLEAR     63  52  67 CALM      30.06R
MADISON        CLEAR     59  52  77 W6        30.07S
WILLMAR        FAIR      57  54  88 W5        30.07S
$$
MNZ033>034-036-042>043-049>051-058-059-301100-
   Central Minnesota

CITY           SKY/WX    TMP DP  RH WIND       PRES   REMARKS
ST CLOUD       CLEAR     62  55  77 W6        30.00R
SAUK CENTRE    FAIR      59  54  83 W6        30.03S
PAYNESVILLE    CLEAR     55  53  94 S5        30.04S
AITKIN         CLEAR     64  55  72 SW5       29.95S
PINE RIVER     CLEAR     63  55  77 CALM      30.01R
BRAINERD       CLEAR     63  56  78 W7        29.98S
STAPLES        CLEAR     61  54  77 W7        30.00R
LONG PRAIRIE   FAIR      59  54  82 SW6       30.02S
LITTLE FALLS   CLEAR     61  54  77 W3        30.01R
LITCHFIELD     CLEAR     63  57  82 W5        30.05S
BUFFALO        CLEAR     62  55  78 SW6       30.04R
MAPLE LAKE     CLEAR     63  57  82 W5        30.03S
$$
MNZ037-044-045-052-053-301100-
   East Central Minnesota

CITY           SKY/WX    TMP DP  RH WIND       PRES   REMARKS
PRINCETON      CLEAR     63  55  77 CALM      30.00S
MORA           CLEAR     63  55  77 W5        29.99S
CAMBRIDGE      CLEAR     66  54  63 W5        29.98R
RUSH CITY      PTCLDY    63  56  77 W7        29.98S
MOOSE LAKE     CLEAR     61  55  82 W5        29.94R
HINCKLEY       FAIR      59  55  88 SW3       29.97R
CLOQUET        CLEAR     63  54  72 W8        29.94R
MCGREGOR       CLEAR     63  55  77 W5        29.96R
$$
MNZ071>073-080-081-089-090-097-098-301100-
   Southwest Minnesota

CITY           SKY/WX    TMP DP  RH WIND       PRES   REMARKS
MONTEVIDEO     CLEAR     59  54  82 W5        30.08S
GRANITE FALLS  CLEAR     56  54  92 CALM      30.08S
CANBY          CLEAR     65  53  64 SW9       30.09S
MARSHALL       CLEAR     63  52  67 W12       30.09S
REDWOOD FALLS  CLEAR     65  53  65 W9        30.06S
OLIVIA         CLEAR     57  52  82 W6        30.06R
PIPESTONE      CLEAR     57  54  88 CALM      30.13S
WINDOM         CLEAR     57  54  88 CALM      30.11S
WORTHINGTON    CLEAR     61  52  72 SW9       30.13S
JACKSON        CLEAR     61  54  77 SW5       30.12S
TRACY          CLEAR     63  54  72 W8        30.10S
SLAYTON        CLEAR     61  54  77 CALM      30.13S
$$
MNZ065>067-074>077-082>085-091>093-301100-
   South Central Minnesota

CITY           SKY/WX    TMP DP  RH WIND       PRES   REMARKS
MANKATO        CLEAR     63  54  72 W9        30.07S
NEW ULM        CLEAR     57  55  94 W5        30.07S
ST JAMES       CLEAR     61  57  88 SW7       30.09S
FAIRMONT       CLEAR     64  52  63 SW7       30.09S
GLENCOE        CLEAR     60  56  88 SW5       30.04S
FARIBAULT      CLEAR     61  57  88 SW6       30.06S
OWATONNA       CLEAR     61  55  82 SW5       30.07S
WASECA         CLEAR     55  54  94 CALM      30.09S
ALBERT LEA     CLEAR     63  55  77 SW3       30.09R
$$
MNZ078>079-086>088-094>096-301100-
   Southeast Minnesota

CITY           SKY/WX    TMP DP  RH WIND       PRES   REMARKS
ROCHESTER      CLEAR     60  55  83 W9        30.08S
RED WING       CLEAR     63  55  77 W3        30.01S
STANTON        CLEAR     62  56  80 SW7       30.03S
DODGE CENTER   CLEAR     55  54  94 W7        30.07S
WINONA         CLEAR     61  55  82 CALM      30.03S
AUSTIN         CLEAR     66  55  68 W7        30.08S
PRESTON        CLEAR     60  55  82 W9        30.08S
$$
ABBREVIATIONS USED IN REMARKS
   TC - TEMPERATURES IN CELSIUS
  WCI - WIND CHILL INDEX
   HX - HEAT INDEX
  VSB - VISIBILITY
$$



USA.gov is the U.S. government's official web portal to all federal, state and local government web resources and services.